Regional Weather Roundup
Issued by NWS Bismarck, ND

Home | Current Version | Previous Version | Text Only | Print | Product List | Glossary On
Versions: 1 2 3 4 5 6 7 8 9 10 11 12 13 14 15 16 17 18 19 20 21 22 23 24 25 26 27 28 29 30 31 32 33 34 35 36 37 38 39 40 41 42 43 44 45 46 47 48 49 50
000
ASUS43 KBIS 162310
RWRBIS

NWR BROADCAST TEXT
NATIONAL WEATHER SERVICE BISMARCK ND
500 PM CST SAT DEC 16 2017

NOTE: "FAIR" INDICATES FEW OR NO CLOUDS BELOW 12,000 FEET WITH NO
SIGNIFICANT WEATHER AND/OR OBSTRUCTIONS TO VISIBILITY.


CITY           SKY/WX    TMP DP  RH WIND       PRES   REMARKS
WILLISTON      FAIR      31  22  69 SW8       29.98R
MINOT          FAIR      35  23  61 SW13      29.94R
MINOT AFB      CLOUDY    31  22  68 W13       29.92R
BISMARCK       FAIR      36  31  82 W7        29.99R
DICKINSON      FAIR      31  22  69 W8        29.96R
GARRISON         N/A     31  26  82 W7        29.96R
HETTINGER ARPT CLOUDY    33  22  63 NW6       29.99R
JAMESTOWN      CLOUDY    33  30  88 CALM      29.97R
CARRINGTON     MOCLDY    34  30  86 CALM      29.97R
HAZEN          FAIR      32  28  86 W8        30.00R
LINTON           N/A     37  28  70 N6        29.99S
MANDAN         FAIR      32  30  93 W7        29.98R
OAKES            N/A     36  34  93 N7        29.97R
RUGBY          FAIR      30  25  80 W9        29.92R
STANLEY        FAIR      28  25  86 W9        29.97R WCI  20
TIOGA          FAIR      28  27  93 SW10      29.96R WCI  19
WATFORD CITY   FAIR      32  23  69 W8        29.98R
$$

CITY           SKY/WX    TMP DP  RH WIND       PRES   REMARKS
GRAND FORKS    CLOUDY    18  17  96 CALM      29.97R
GRAND FORKS AF CLOUDY    21  18  90 CALM      29.97R
DEVILS LAKE    CLEAR     26  24  92 S3        29.94R
FARGO          PTCLDY    27  25  92 SW3       29.99R
CANDO          FAIR      25  25 100 S9        29.94R WCI  15
CAVALIER       FOG       18  18 100 SE3       29.95R VSB 1/2
GRAFTON        FAIR      18  18 100 S3        29.99R FOG
GWINNER          N/A     36  32  87 N5        29.97R
LANGDON        FAIR      14  14 100 S9        29.91R WCI   2
ROLLA          FAIR      27  27 100 W13       29.88S WCI  16
WALHALLA       FAIR      18  18 100 SE6       29.93S WCI   9
$$

CITY           SKY/WX    TMP DP  RH WIND       PRES   REMARKS
ABERDEEN       CLOUDY    37  30  75 NE3       29.97R
MOBRIDGE       CLOUDY    38  30  73 N7        29.94R
BUFFALO          N/A     34  23  64 N10       29.92R
RAPID CITY     CLOUDY    34  27  75 NW10      29.96R
GLASGOW        CLEAR     32  21  64 NW7       30.00R
SIDNEY         PTCLDY    33  21  61 W13       29.99S
WOLF POINT     CLEAR     32  22  66 SW6       30.01R
GLENDIVE       MOCLDY    33  20  58 NW6       30.01R
MILES CITY     CLOUDY    34  24  67 W5        30.01R
BAKER          CLOUDY    32  27  81 NW5       30.00R
$$

CITY           SKY/WX    TMP DP  RH WIND       PRES   REMARKS
BILLINGS       LGT SNOW  30  29  96 N6        30.01R FOG
GREAT FALLS    CLEAR     31  25  78 S7        29.99S
REGINA         PTCLDY    28  21  74 W14       29.88R WCI  17
ESTEVAN        PTCLDY    28  19  69 W10       29.91R WCI  19
$$





USA.gov is the U.S. government's official web portal to all federal, state and local government web resources and services.